Flag for Germany Weather past 2 weeks in Euskirchen, North Rhine-Westphalia, Germany

Now
54 °F

Passing clouds.


Feels Like: 54 °F
Forecast: 46 / 63 °F
Wind: 2 mph from Southwest

Location: Noervenich

Current Time: Sep 3, 2015 at 8:54:37 AM

Latest Report: Sep 3, 2015 at 8:20 AM


Visibility: N/A

Pressure: 29.98 "Hg

Humidity: 88%

Dew point: 50 °F

Location of EuskirchenLocation

Historic Weather in Euskirchen — Graph

°F

Euskirchen temperature yesterday

Maximum temperature yesterday: 66 °F (at 3:20 PM)
Minimum temperature yesterday: 52 °F (at 3:20 AM)
Average temperature yesterday: 58 °F

Past Weeks' High & Low Weather Summary

 TemperatureHumidityPressure
High91 °F (Aug 30, 3:20 PM)100% (Aug 24, 2:49 AM)30.24 "Hg (Aug 24, 2:49 AM)
Low50 °F (Aug 19, 7:20 AM)30% (Aug 23, 3:20 PM)29.53 "Hg (Aug 24, 2:20 PM)
Average66 °F72%29.97 "Hg
* Reported Aug 19 7:20 AM — Sep 3 7:20 AM, Euskirchen, Weather by CustomWeather, © 2015

Note: Actual official high and low records may vary slightly from our data, if they occured in-between our weather recording intervals... More about our weather records

Advertising

Euskirchen weather history for previous 24 hours

 ConditionsComfort  
Time TempWeatherWind HumidityBarometerVisibility
7:20 AM
Thu, Sep 3
52 °FPassing clouds.2 mph94%29.95 "HgN/A
6:20 AM52 °FPassing clouds.2 mph94%29.98 "HgN/A
5:20 AM52 °FPassing clouds.2 mph94%29.98 "HgN/A
4:20 AM54 °FPassing clouds.3 mph94%29.98 "HgN/A
3:20 AM55 °FPassing clouds.3 mph94%29.98 "HgN/A
2:20 AM55 °FPassing clouds.2 mph94%29.98 "HgN/A
1:20 AM55 °FPartly cloudy.1 mph94%29.98 "HgN/A
12:20 AM55 °FSprinkles. Partly cloudy.2 mph94%30.01 "HgN/A
11:20 PM
Wed, Sep 2
57 °FSprinkles. Partly cloudy.3 mph82%30.01 "HgN/A
10:20 PM57 °FPassing clouds.5 mph77%30.01 "HgN/A
9:20 PM57 °FPassing clouds.2 mph82%30.01 "HgN/A
8:20 PM59 °FPartly sunny.2 mph77%30.01 "HgN/A
7:20 PM61 °FPartly sunny.3 mph72%30.01 "HgN/A
6:20 PM61 °FScattered clouds.5 mph68%30.01 "HgN/A
5:20 PM64 °FScattered clouds.8 mph64%30.01 "HgN/A
4:20 PM64 °FBroken clouds.9 mph64%30.01 "HgN/A
3:20 PM66 °FBroken clouds.6 mph56%30.01 "HgN/A
2:20 PM64 °FScattered clouds.6 mph56%30.01 "HgN/A
1:20 PM64 °FScattered clouds.5 mph64%30.01 "HgN/A
12:20 PM61 °FBroken clouds.6 mph77%30.04 "HgN/A
11:20 AM63 °FBroken clouds.2 mph68%30.04 "HgN/A
10:20 AM59 °FPassing clouds.3 mph77%30.04 "HgN/A
9:20 AM57 °FScattered clouds.3 mph82%30.04 "HgN/A
8:20 AM54 °FScattered clouds.2 mph94%30.04 "HgN/A
Weather by CustomWeather, © 2015

See weather overviewHow to use our weather pages